Torna al catalogo

ASTRA 1D

AttivoComunicazioniGEO
NORAD 23331·PAYLOAD·🇱🇺 Luxembourg

Lanciato Nov 1, 1994 da Guiana Space Centre

Loading…

TLE

AggiornatoSource: Space-Track

Epoca: Sep 14, 2026, 05:54 UTC

1 23331U 94070A   26257.24604418 -.00000285  00000-0  00000-0 0  9999
2 23331  12.4259  28.0433 0007837 145.1028  46.6109  0.98952701116828

Traccia ASTRA 1D in tempo reale con AllMySat

Download on the App Store